Waarnemingen

Advertentie
Mijn weer
Brest, Frankrijk (7110): temperatuur & dauwpunt: 12.12.2017 23:00:00 - 18.12.2017 23:00:00 (CET)Brest, Frankrijk (7110): temperatuur 5cm: 12.12.2017 23:00:00 - 18.12.2017 23:00:00 (CET)Brest, Frankrijk (7110): temperatuur -20cm & temperatuur -100cm: 12.12.2017 23:00:00 - 18.12.2017 23:00:00 (CET)Brest, Frankrijk (7110): windsnelheid & windstoten: 12.12.2017 23:00:00 - 18.12.2017 23:00:00 (CET)Brest, Frankrijk (7110): windrichting: 12.12.2017 23:00:00 - 18.12.2017 23:00:00 (CET)Brest, Frankrijk (7110): luchtdruk: 12.12.2017 23:00:00 - 18.12.2017 23:00:00 (CET)Brest, Frankrijk (7110): zicht: 12.12.2017 23:00:00 - 18.12.2017 23:00:00 (CET)Brest, Frankrijk (7110): Zonneschijnduur: 12.12.2017 23:00:00 - 18.12.2017 23:00:00 (CET)Brest, Frankrijk (7110): neerslag: 12.12.2017 23:00:00 - 18.12.2017 23:00:00 (CET)
Datum & Tijd tt [°C] td [°C] tt 5cm [°C] tt -20cm [°C] tt -100cm [°C] ff [km/u] ff [kn] fx [km/u] fx [kn] dd ppp [hPa] vv [km] sd [min] rr [mm]
18.12.2017 23:00:00 - - - - - - - - - - - - - -
18.12.2017 22:00:00 3,6 3,2 -1,3 8,5 9,6 9 5 12 7 OZO 1034,5 9 0 0,0
18.12.2017 21:00:00 4,8 4,1 -0,8 8,6 9,7 8 5 12 7 O 1033,8 9 0 0,0
18.12.2017 20:00:00 4,9 3,9 -0,3 8,6 9,7 5 3 12 6 ONO 1032,9 10 0 0,0
18.12.2017 19:00:00 6,2 4,8 -0,1 8,6 9,7 8 4 10 5 ONO 1032,1 10 0 0,0
18.12.2017 18:00:00 7,5 5,3 4,7 8,6 9,7 9 5 22 12 ONO 1031,7 16 7 0,0
18.12.2017 17:00:00 9,2 6,3 8,3 8,5 9,7 13 7 21 11 NO 1031,1 20 60 0,0
18.12.2017 16:00:00 10,7 7,0 10,4 8,5 9,7 11 6 21 12 NO 1030,2 19 60 0,0
18.12.2017 15:00:00 11,4 7,7 12,6 8,4 9,7 14 8 24 13 NNO 1030,1 20 60 0,0
18.12.2017 14:00:00 11,7 8,0 12,5 8,4 9,7 13 7 23 12 NNO 1030,1 10 50 0,0
18.12.2017 13:00:00 11,4 8,4 12,2 8,4 9,7 16 9 26 14 NNO 1030,3 36 42 0,0
18.12.2017 12:00:00 11,1 10,2 10,3 8,3 9,7 13 7 21 11 N 1030,3 35 60 0,0
18.12.2017 11:00:00 10,2 9,9 9,0 8,3 9,7 9 5 19 11 N 1029,8 20 47 0,0
18.12.2017 10:00:00 9,7 9,6 8,9 8,2 9,7 10 5 25 13 N 1029,2 15 0 0,0
18.12.2017 09:00:00 10,2 10,0 10,0 8,2 9,7 16 9 26 14 N 1028,5 3,6 0 0,0
18.12.2017 08:00:00 10,4 10,2 10,3 8,1 9,7 13 7 29 15 N 1027,6 2,3 0 0,0
18.12.2017 07:00:00 10,5 10,3 10,4 8,1 9,7 21 11 31 17 NNW 1027,2 2,1 0 0,0
18.12.2017 06:00:00 10,8 10,5 10,7 8,0 9,7 17 9 39 21 NW 1027,1 3,1 0 0,0
18.12.2017 05:00:00 11,3 11,0 11,2 8,0 9,7 16 9 29 15 WNW 1026,6 3,4 0 0,2
18.12.2017 04:00:00 11,4 11,1 11,1 7,9 9,7 13 7 33 18 WNW 1026,9 3,5 0 0,0
18.12.2017 03:00:00 11,3 10,8 11,0 7,9 9,7 18 10 27 15 WZW 1026,3 2,0 0 0,0
18.12.2017 02:00:00 11,3 10,8 10,9 7,8 9,7 21 11 33 18 WZW 1026,7 6 0 0,0
18.12.2017 01:00:00 11,1 10,6 10,7 7,8 9,7 16 9 30 16 W 1027,9 5 0 0,2
18.12.2017 00:00:00 11,0 10,4 10,5 7,8 9,7 16 9 37 20 W 1028,2 4,4 0 0,2
17.12.2017 23:00:00 10,8 9,9 10,4 7,7 9,7 19 10 41 22 W 1028,1 1,6 0 0,0
17.12.2017 22:00:00 11,1 9,5 10,3 7,7 9,7 28 15 45 24 WZW 1027,4 15 0 0,0
17.12.2017 21:00:00 10,8 9,1 9,0 7,6 9,7 26 14 36 20 WZW 1027,4 10 0 0,0
17.12.2017 20:00:00 10,3 8,6 8,8 7,6 9,7 22 12 32 18 ZW 1027,4 17 0 0,0
17.12.2017 19:00:00 10,2 8,1 9,1 7,5 9,7 21 11 26 14 ZW 1027,3 10 0 0,0
17.12.2017 18:00:00 10,3 7,7 9,2 7,5 9,7 18 10 29 16 WZW 1028,0 10 0 0,0
17.12.2017 17:00:00 10,4 7,5 9,5 7,4 9,7 16 9 27 15 WZW 1028,1 10 1 0,0
17.12.2017 16:00:00 10,6 7,1 9,6 7,4 9,7 16 9 31 17 WZW 1028,1 10 0 0,0
17.12.2017 15:00:00 10,2 7,3 9,6 7,4 9,7 13 7 27 14 W 1028,6 10 0 0,0
17.12.2017 14:00:00 10,5 7,2 10,4 7,4 9,7 18 10 28 15 WZW 1028,6 10 0 0,0
17.12.2017 13:00:00 10,5 7,4 9,2 7,4 9,8 15 8 20 11 ZW 1028,2 10 11 0,0
17.12.2017 12:00:00 9,2 6,6 8,6 7,4 9,7 10 6 15 8 WZW 1029,1 42 0 0,0
17.12.2017 11:00:00 8,5 7,3 3,6 7,4 9,8 5 3 9 5 ZW 1029,1 10 13 0,0
17.12.2017 10:00:00 5,9 5,2 0,3 7,4 9,8 5 3 8 5 WZW 1029,0 36 3 0,0
17.12.2017 09:00:00 7,3 6,1 3,2 7,4 9,8 6 3 13 7 W 1028,7 47 0 0,0
17.12.2017 08:00:00 5,9 4,7 0,6 7,4 9,8 5 3 13 7 W 1028,5 10 0 0,0
17.12.2017 07:00:00 6,8 5,3 3,9 7,4 9,8 5 3 13 7 WNW 1028,3 10 0 0,0
17.12.2017 06:00:00 6,0 4,2 1,6 7,4 9,8 8 4 13 7 W 1028,2 10 0 0,0
17.12.2017 05:00:00 7,2 4,8 3,6 7,4 9,8 9 5 15 8 WNW 1028,2 10 0 0,0
17.12.2017 04:00:00 7,9 5,4 5,7 7,4 9,8 10 5 21 11 WNW 1028,3 60 0 0,0
17.12.2017 03:00:00 7,8 5,9 5,7 7,4 9,8 13 7 22 12 WNW 1027,9 60 0 0,0
17.12.2017 02:00:00 7,2 5,3 5,6 7,4 9,8 8 4 18 10 WNW 1027,9 10 0 0,2
17.12.2017 01:00:00 7,6 4,7 5,7 7,4 9,8 10 5 18 10 WNW 1028,0 60 0 0,0
17.12.2017 00:00:00 7,3 4,8 4,9 7,4 9,8 10 5 16 9 WNW 1028,1 60 0 0,0
16.12.2017 23:00:00 6,8 4,9 3,4 7,4 9,8 10 5 15 8 WNW 1028,0 60 0 0,0
16.12.2017 22:00:00 6,3 3,8 4,3 7,4 9,8 6 3 16 8 WZW 1027,7 60 0 0,0
16.12.2017 21:00:00 6,5 3,6 3,5 7,4 9,8 9 5 16 9 WNW 1028,0 56 0 0,0
16.12.2017 20:00:00 5,6 3,1 3,2 7,4 9,8 9 5 14 7 W 1027,3 49 0 0,0
16.12.2017 19:00:00 5,9 2,9 1,1 7,4 9,8 8 5 13 7 NW 1027,1 52 0 0,0
16.12.2017 18:00:00 5,4 1,3 0,5 7,4 9,8 4 2 14 7 WNW 1026,7 59 0 0,0
16.12.2017 17:00:00 7,4 1,9 4,4 7,4 9,8 8 4 22 12 NNW 1026,0 60 43 0,0
16.12.2017 16:00:00 8,7 1,6 7,8 7,4 9,8 14 8 25 13 NNW 1025,5 54 60 0,0
16.12.2017 15:00:00 8,9 1,3 9,0 7,4 9,8 18 10 29 16 N 1024,8 46 53 0,0
16.12.2017 14:00:00 9,4 2,3 9,4 7,4 9,8 16 9 36 19 NNW 1024,6 36 58 0,0
16.12.2017 13:00:00 8,7 2,3 7,7 7,4 9,8 18 10 36 19 N 1024,2 10 53 0,0
16.12.2017 12:00:00 8,6 2,2 6,4 7,4 9,8 18 10 32 18 NNW 1024,2 39 60 0,0
16.12.2017 11:00:00 7,7 2,4 2,8 7,5 9,8 14 8 24 13 N 1023,6 20 31 0,0
16.12.2017 10:00:00 5,5 1,6 0,2 7,5 9,8 10 5 17 9 NNW 1022,7 60 16 0,0
16.12.2017 09:00:00 5,0 1,3 -0,2 7,5 9,8 10 6 16 9 NNW 1021,9 60 0 0,0
16.12.2017 08:00:00 3,8 2,6 -1,0 7,6 9,8 9 5 14 8 NNW 1021,1 59 0 0,0
16.12.2017 07:00:00 4,9 2,1 -0,2 7,6 9,8 4 2 22 12 N 1020,4 10 0 0,0
16.12.2017 06:00:00 5,5 3,0 0,0 7,6 9,8 13 7 28 15 NNW 1019,6 10 0 0,0
16.12.2017 05:00:00 5,5 3,0 2,9 7,6 9,9 11 6 20 11 N 1019,1 10 0 0,0
16.12.2017 04:00:00 5,6 2,4 0,1 7,6 9,8 11 6 23 13 N 1018,6 54 0 0,0
16.12.2017 03:00:00 4,5 3,2 0,6 7,7 9,9 10 5 18 10 N 1017,9 51 0 0,0
16.12.2017 02:00:00 5,3 3,3 4,0 7,6 9,8 9 5 37 20 N 1017,2 19 0 1,4
16.12.2017 01:00:00 6,3 3,8 4,1 7,6 9,8 9 5 32 18 N 1016,5 10 0 0,0
16.12.2017 00:00:00 6,6 4,4 5,0 7,6 9,8 15 8 32 17 NNO 1015,7 19 0 0,8
15.12.2017 23:00:00 7,4 4,4 5,5 7,6 9,8 15 8 33 18 N 1014,9 10 0 0,2
15.12.2017 22:00:00 7,6 3,6 5,8 7,6 9,9 16 9 38 21 N 1014,2 20 0 0,0
15.12.2017 21:00:00 8,0 3,5 6,4 7,6 9,9 22 12 44 24 N 1013,3 55 0 0,0
15.12.2017 20:00:00 8,2 4,8 6,7 7,6 9,9 24 13 43 23 NNW 1012,1 10 0 0,0
15.12.2017 19:00:00 8,0 4,8 6,8 7,6 9,9 26 14 49 26 NNW 1010,9 17 0 0,0
15.12.2017 18:00:00 8,0 4,2 6,8 7,5 9,9 26 14 43 23 NNW 1010,2 59 0 0,0
15.12.2017 17:00:00 8,0 4,6 6,9 7,5 9,9 26 14 46 25 NNW 1009,1 39 5 0,0
15.12.2017 16:00:00 8,6 4,4 7,0 7,5 9,9 26 14 50 27 NNW 1008,0 47 20 0,0
15.12.2017 15:00:00 8,1 2,5 7,1 7,5 9,9 28 15 55 30 NNW 1007,6 14 35 0,0
15.12.2017 14:00:00 9,5 2,8 7,2 7,5 9,9 27 14 57 31 NNW 1006,8 15 47 0,0
15.12.2017 13:00:00 9,0 3,2 7,6 7,5 9,9 35 19 57 31 NNW 1006,4 17 50 0,0
15.12.2017 12:00:00 8,3 2,9 5,8 7,5 9,9 35 19 62 34 N 1006,0 20 26 1,0
15.12.2017 11:00:00 8,3 5,2 5,7 7,5 9,9 28 15 63 34 NNW 1005,0 15 5 0,8
15.12.2017 10:00:00 8,3 4,5 6,0 7,5 9,9 30 16 55 30 NW 1003,7 17 0 0,0
15.12.2017 09:00:00 8,0 4,2 5,4 7,5 9,9 27 15 46 25 NW 1003,1 19 0 0,0
15.12.2017 08:00:00 7,8 4,4 5,1 7,6 9,9 22 12 43 23 NNW 1002,6 10 0 0,0
15.12.2017 07:00:00 7,0 5,0 2,7 7,6 9,9 17 9 32 17 NW 1001,5 17 0 0,0
15.12.2017 06:00:00 5,6 3,8 3,5 7,6 9,9 9 5 54 29 WNW 1001,2 19 0 0,4
15.12.2017 05:00:00 7,1 3,9 4,3 7,6 9,9 17 9 33 18 WNW 1001,3 19 0 0,0
15.12.2017 04:00:00 7,1 3,9 3,6 7,6 9,9 16 9 45 24 WNW 1001,6 10 0 0,8
15.12.2017 03:00:00 5,6 2,4 3,0 7,7 9,9 18 10 57 31 WNW 1001,6 10 0 1,2
15.12.2017 02:00:00 6,8 4,1 4,1 7,7 9,9 21 11 48 26 WNW 1001,3 10 0 0,2
15.12.2017 01:00:00 6,1 3,1 4,0 7,7 9,9 21 11 59 32 W 1001,3 10 0 0,4
15.12.2017 00:00:00 7,2 3,6 4,8 7,7 9,9 21 11 52 28 WNW 1000,8 10 0 0,2
14.12.2017 23:00:00 7,0 3,2 4,4 7,8 9,9 24 13 54 29 WNW 1000,4 10 0 0,2
14.12.2017 22:00:00 6,9 3,5 4,9 7,8 9,9 31 17 69 37 WNW 1000,0 3,8 0 0,4
14.12.2017 21:00:00 6,6 4,1 4,1 7,8 9,9 24 13 65 35 W 999,2 19 0 1,0
14.12.2017 20:00:00 6,4 3,9 3,7 7,8 9,9 27 14 80 43 W 998,9 19 0 0,8
14.12.2017 19:00:00 7,3 1,6 3,9 7,8 9,9 27 14 51 28 W 998,8 19 0 0,0
14.12.2017 18:00:00 6,1 2,5 3,8 7,9 9,9 27 15 66 36 WNW 999,2 20 0 0,0
14.12.2017 17:00:00 7,2 1,1 4,9 7,9 9,9 34 18 59 32 W 998,8 40 4 0,0
14.12.2017 16:00:00 6,5 4,0 4,4 7,9 9,9 21 11 61 33 W 999,2 10 0 0,4
14.12.2017 15:00:00 5,4 4,0 2,8 7,9 9,9 33 18 75 40 WNW 1000,1 8 1 2,8
14.12.2017 14:00:00 8,6 4,6 6,4 7,9 9,9 28 15 56 30 W 1000,3 10 8 0,0
14.12.2017 13:00:00 6,9 4,4 6,1 7,9 9,9 26 14 59 32 W 1001,6 20 1 0,4
14.12.2017 12:00:00 7,9 6,0 5,6 7,9 9,9 17 9 48 26 W 1002,2 16 20 0,8
14.12.2017 11:00:00 7,7 4,6 6,2 8,0 9,9 29 16 63 34 W 1003,5 9 0 0,8
14.12.2017 10:00:00 7,2 5,2 4,9 8,0 9,9 22 12 50 27 W 1003,5 18 1 0,2
14.12.2017 09:00:00 7,3 3,9 4,9 8,0 9,9 22 12 54 29 W 1004,1 10 0 0,0
14.12.2017 08:00:00 7,0 4,5 4,9 8,0 9,9 31 17 68 37 W 1004,7 10 0 0,2
14.12.2017 07:00:00 7,0 4,1 5,2 8,1 10,0 28 15 56 30 WNW 1004,9 8 0 0,6
14.12.2017 06:00:00 6,6 4,4 4,9 8,1 10,0 26 14 69 37 W 1005,9 10 0 0,4
14.12.2017 05:00:00 6,9 3,7 5,0 8,1 10,0 28 15 56 30 WNW 1006,7 10 0 0,2
14.12.2017 04:00:00 6,9 3,1 4,2 8,2 10,0 18 10 42 23 W 1007,2 18 0 0,0
14.12.2017 03:00:00 6,9 3,0 3,9 8,2 10,0 31 17 63 34 W 1007,4 19 0 0,0
14.12.2017 02:00:00 6,4 2,7 4,1 8,2 10,0 24 13 71 38 WNW 1007,7 10 0 0,2
14.12.2017 01:00:00 7,0 3,1 4,8 8,2 10,0 25 14 68 37 WNW 1007,6 17 0 0,0
14.12.2017 00:00:00 8,0 1,6 5,4 8,2 10,0 26 14 62 33 WNW 1007,2 10 0 0,0
13.12.2017 23:00:00 8,0 2,0 5,5 8,2 10,0 36 19 69 37 WNW 1006,7 16 0 0,2
13.12.2017 22:00:00 8,3 5,2 6,2 8,2 10,0 34 18 72 39 WNW 1005,8 13 0 0,4
13.12.2017 21:00:00 8,4 6,2 7,1 8,2 10,0 34 18 76 41 W 1005,0 12 0 1,0
13.12.2017 20:00:00 9,4 5,2 6,4 8,2 10,0 27 15 58 31 W 1004,6 14 0 0,0
13.12.2017 19:00:00 9,0 4,0 6,5 8,1 10,0 26 14 62 33 W 1004,9 15 0 0,0
13.12.2017 18:00:00 9,4 6,8 7,9 8,1 10,0 24 13 49 27 WNW 1004,5 10 0 0,0
13.12.2017 17:00:00 10,3 8,2 9,2 8,0 10,0 26 14 52 28 W 1003,8 10 0 0,0
13.12.2017 16:00:00 10,5 9,3 9,7 8,0 10,0 29 16 62 33 WNW 1003,1 10 0 0,2
13.12.2017 15:00:00 11,1 10,5 11,0 7,9 10,0 21 11 39 21 WNW 1002,1 10 0 0,0
13.12.2017 14:00:00 10,6 10,0 10,6 7,9 10,0 14 8 48 26 ZW 1002,3 3,0 0 0,8
13.12.2017 13:00:00 10,5 9,9 10,2 7,9 10,0 35 19 48 26 ZW 1003,5 3,1 0 1,8
13.12.2017 12:00:00 10,3 9,4 9,6 7,8 10,0 36 20 58 31 ZW 1005,3 3,4 0 1,8
13.12.2017 11:00:00 10,2 8,5 8,6 7,8 10,0 28 15 41 22 ZW 1006,2 9 0 0,0
13.12.2017 10:00:00 9,6 7,4 8,4 7,7 10,0 23 12 51 27 ZW 1007,6 19 0 0,4
13.12.2017 09:00:00 10,0 7,9 8,0 7,7 10,0 21 12 32 17 WZW 1008,3 10 0 0,0
13.12.2017 08:00:00 9,5 7,6 7,6 7,7 10,0 19 11 28 15 WZW 1009,0 12 0 0,0
13.12.2017 07:00:00 8,9 7,3 7,0 7,7 10,0 14 8 24 13 WZW 1009,6 14 0 0,0
13.12.2017 06:00:00 8,3 6,6 7,2 7,6 10,0 12 6 28 15 W 1009,6 19 0 0,2
13.12.2017 05:00:00 9,4 6,5 7,6 7,6 10,1 16 9 30 16 W 1009,8 10 0 0,0
13.12.2017 04:00:00 9,3 6,9 7,6 7,5 10,0 15 8 29 16 W 1009,5 10 0 0,0
13.12.2017 03:00:00 9,2 7,0 7,7 7,5 10,1 14 8 29 15 WNW 1010,1 12 0 0,0
13.12.2017 02:00:00 9,6 8,0 8,5 7,4 10,1 14 8 37 20 W 1009,3 11 0 0,0
13.12.2017 01:00:00 10,4 9,9 9,8 7,4 10,1 27 14 56 31 WZW 1009,3 12 0 0,8
13.12.2017 00:00:00 10,0 9,5 8,9 7,3 10,1 34 18 53 29 ZW 1009,3 2,3 0 1,8
12.12.2017 23:00:00 9,2 8,6 8,4 7,3 10,1 31 17 51 28 ZZW 1010,2 3,3 0 1,8

tt = temperatuur
td = dauwpunt
tt 5cm = temperatuur 5cm
tt -20cm = temperatuur -20cm
tt -100cm = temperatuur -100cm
ff = windsnelheid
fx = windstoten
dd = windrichting
ppp = luchtdruk
vv = zicht
sd = Zonneschijnduur
rr = neerslag

Weerstations in de omgeving